Theta_e
339 343 343 346 345 342 342 338 337 333 329 328 325 321 317 315 313 313 312 312 313 312 311 311 310 310 310 309 309 309 309 309 310 309 309 309 309 309 309 308 307 304 304
337 341 343 344 343 341 340 336 332 329 327 324 321 319 317 316 314 313 312 311 311 310 310 310 309 308 307 307 307 308 308 308 309 309 309 309 309 309 308 306 303 304 303
337 340 338 338 343 339 336 331 330 328 325 323 320 318 316 315 313 311 310 310 309 308 307 307 305 305 305 306 307 307 307 307 308 309 308 308 308 308 305 302 302 303 303
337 342 341 337 336 334 332 331 329 329 325 323 320 319 316 313 312 311 310 308 307 305 304 303 303 302 302 302 304 305 305 307 307 307 308 308 308 306 301 300 300 302 303
335 338 338 331 330 329 328 327 327 326 322 319 318 316 314 312 310 309 308 307 306 304 302 302 300 300 299 299 301 302 304 305 306 306 307 307 306 302 299 299 301 302 302
335 337 333 328 327 324 323 322 319 318 317 316 315 312 306 305 305 305 306 305 303 302 302 301 300 299 301 301 300 301 301 301 304 305 306 305 302 299 298 299 301 302 302
335 331 329 324 322 320 317 316 314 313 313 312 309 305 302 300 300 301 303 303 302 301 300 301 300 299 298 301 302 303 304 303 301 302 303 302 300 298 298 300 301 302 302
332 327 324 322 318 317 315 313 311 310 308 304 303 301 299 298 298 299 300 300 298 298 298 299 300 298 295 298 302 303 304 304 302 302 302 301 299 299 299 300 301 302 303
324 321 320 319 318 315 313 312 308 306 304 302 300 298 297 297 297 298 298 297 297 298 297 295 296 295 295 297 301 302 303 303 303 303 303 301 300 299 299 301 301 301 301
320 318 316 316 316 314 312 308 306 305 301 301 300 299 298 296 294 295 296 296 297 297 298 297 293 294 295 296 299 299 300 300 303 304 303 301 299 300 299 301 300 300 300
316 315 315 314 313 311 307 305 302 300 299 299 299 298 295 293 290 290 294 295 297 298 298 296 294 294 295 295 295 296 297 298 304 302 301 299 298 299 299 300 300 300 300
315 313 312 311 309 307 304 301 300 299 299 298 297 295 293 291 289 290 292 295 297 297 296 295 293 294 295 296 297 297 299 302 304 301 299 297 297 298 299 299 299 301 302
310 309 308 308 308 306 306 302 303 302 301 300 296 295 293 292 292 291 291 292 293 293 293 292 294 295 296 298 298 299 300 301 300 300 297 297 297 298 300 301 300 304 306
306 306 305 304 304 303 304 305 305 302 300 297 296 295 294 294 294 295 295 295 294 295 295 295 295 297 298 299 300 300 299 298 298 297 297 296 298 299 301 301 300 305 305
305 304 304 303 303 301 299 300 299 299 297 296 295 294 293 291 289 291 292 293 293 293 296 297 298 299 300 300 300 299 298 297 296 295 296 296 297 299 300 301 304 305 306
303 303 299 299 297 294 293 291 293 293 293 292 290 290 289 288 289 289 290 291 292 294 296 297 298 299 300 300 299 298 296 295 294 295 296 296 297 298 298 302 304 305 306
300 300 298 298 297 295 292 289 288 286 287 288 288 288 288 288 288 289 290 291 293 295 296 296 298 299 299 298 296 295 293 292 293 294 295 297 297 298 298 301 304 305 306
298 299 299 296 294 293 292 290 290 290 289 288 287 287 287 288 289 290 292 293 294 294 294 296 297 298 298 296 294 293 292 292 293 293 296 297 297 297 297 298 302 304 304
296 295 294 293 292 292 292 292 291 290 289 288 287 286 287 288 289 291 292 294 294 293 294 295 296 298 298 295 293 292 291 292 293 296 299 300 300 300 301 300 302 303 303
295 294 294 294 294 293 292 291 291 291 291 291 290 290 290 292 292 292 292 293 293 293 293 294 295 296 298 295 293 293 296 297 298 300 301 302 301 300 301 302 303 303 302
294 294 294 294 294 293 292 292 292 292 292 291 290 290 290 291 291 291 291 291 292 292 292 292 294 295 296 296 296 297 298 298 297 299 300 301 301 300 300 301 301 301 301
295 295 295 294 294 293 293 292 292 291 290 289 289 288 290 291 291 290 290 290 291 291 292 292 292 293 294 294 295 295 296 297 297 299 300 300 300 300 299 300 300 300 300
295 295 295 294 293 292 292 292 291 291 290 290 291 291 291 290 290 290 290 290 291 291 291 291 291 291 292 292 292 291 292 294 296 298 299 300 300 300 300 299 300 300 300
295 294 294 294 294 293 293 293 292 292 292 291 291 291 290 290 290 290 290 290 290 290 291 291 291 290 290 290 290 289 289 291 294 297 299 299 299 299 299 299 299 299 300
295 295 294 294 295 294 293 293 293 292 292 291 291 290 290 290 290 290 289 289 290 290 290 290 290 290 289 288 288 288 289 290 291 295 297 298 298 299 299 299 299 299 299
295 295 295 295 294 294 294 293 293 292 292 292 291 291 290 290 290 290 289 289 289 289 289 289 289 289 288 287 286 287 288 289 290 292 294 296 296 296 298 298 298 299 299
Wind_Speed
19 25 29 32 30 36 35 35 38 35 32 32 25 23 22 20 18 17 17 15 14 10 8 7 7 9 9 10 11 12 13 16 15 22 24 24 23 25 27 32 30 32 29
16 21 28 31 36 35 37 38 38 35 28 27 24 24 22 21 19 19 16 13 11 9 8 8 11 10 12 11 12 13 13 15 17 20 23 24 25 26 32 34 35 31 32
15 19 23 24 24 45 34 38 39 36 30 27 26 25 22 20 22 19 16 14 11 10 10 11 12 13 12 14 13 14 15 16 16 19 22 23 27 28 33 34 31 31 31
16 18 21 21 25 27 51 43 40 36 33 30 26 26 21 21 21 18 15 13 11 11 11 13 13 13 14 15 13 14 15 17 18 20 21 24 25 30 28 29 31 30 26
18 21 18 24 29 40 37 39 38 37 35 33 32 28 23 20 17 17 14 13 12 12 12 11 13 13 16 16 13 14 16 18 19 21 20 23 27 29 29 29 28 28 19
21 24 27 33 31 28 39 39 40 36 40 38 35 29 27 20 18 18 13 15 13 12 12 11 12 16 15 16 18 18 15 15 17 19 21 22 23 25 29 28 25 24 7
22 26 30 37 39 30 37 40 40 43 45 42 36 32 32 24 18 19 16 17 13 13 13 13 11 15 18 14 16 16 13 14 16 17 18 19 19 27 28 28 27 25 14
25 29 34 32 46 27 38 39 38 43 45 39 36 33 29 23 21 20 16 15 14 14 16 13 14 16 20 18 16 15 13 14 15 15 13 14 18 23 23 23 23 23 14
30 33 32 38 40 37 39 38 38 43 40 35 38 33 28 23 20 17 13 12 14 14 13 20 15 17 23 19 16 16 15 15 16 16 16 16 20 20 23 24 27 24 16
34 36 36 41 43 38 41 40 44 36 36 33 30 28 23 22 16 17 12 12 12 12 14 14 22 22 20 21 18 19 16 15 18 17 17 17 21 22 24 24 26 24 23
39 40 39 40 40 40 42 45 45 37 36 32 31 24 23 19 20 18 16 12 12 14 14 15 17 18 21 22 20 16 14 14 14 16 17 19 23 22 23 21 24 26 25
43 42 41 41 38 40 48 44 39 37 35 31 28 24 22 20 23 19 20 19 17 17 17 15 14 16 18 21 18 19 21 15 15 16 17 21 22 24 18 16 20 19 21
47 41 41 41 35 38 42 43 34 30 29 26 24 22 22 18 21 24 23 23 23 22 17 16 16 18 16 14 19 23 21 19 17 16 17 19 20 19 14 14 19 18 16
47 43 42 43 39 38 35 32 30 26 24 24 23 24 21 18 15 14 14 16 19 17 13 12 12 12 15 15 21 22 20 20 18 17 17 18 20 19 18 19 17 17 20
45 44 41 42 37 37 32 28 28 21 19 23 26 23 20 19 16 16 16 16 15 12 10 13 16 16 18 23 23 22 20 19 19 18 17 19 23 20 18 19 16 18 19
46 41 39 38 36 38 40 41 36 34 31 33 30 28 28 26 22 23 22 23 18 12 14 17 17 19 23 23 21 21 20 19 18 17 17 21 21 20 17 16 17 18 19
47 45 40 39 38 39 39 39 34 41 41 37 34 31 29 28 28 28 27 21 15 16 19 18 21 23 23 21 20 19 21 19 17 17 19 23 22 20 19 17 16 17 17
47 46 41 40 38 37 35 33 33 32 31 29 29 28 26 27 26 21 15 14 16 20 21 21 22 21 21 21 20 20 19 21 22 20 24 23 22 21 22 18 17 17 17
46 43 42 39 38 36 34 35 33 33 32 29 25 29 30 29 27 22 19 18 19 22 21 21 20 19 20 22 24 24 20 23 23 23 21 19 18 19 20 16 15 16 16
45 48 45 42 35 34 34 33 31 31 29 26 25 22 17 16 17 18 18 19 22 22 21 20 19 19 19 19 23 24 22 21 22 23 23 22 22 21 19 19 18 17 18
43 41 43 38 34 33 33 33 29 29 27 26 22 18 17 18 18 19 20 20 20 21 19 19 19 19 18 20 22 23 22 22 22 23 23 23 22 22 20 20 19 19 19
41 39 36 35 35 34 33 32 27 29 29 27 24 21 19 20 19 20 19 21 20 19 20 19 19 19 20 21 22 22 21 22 23 23 23 23 22 22 22 20 22 21 20
39 39 37 35 36 36 34 29 30 30 28 24 21 20 20 20 19 19 20 20 20 20 20 21 20 20 20 20 21 22 23 21 20 22 21 21 21 21 20 21 21 21 21
38 37 38 35 34 33 31 31 29 28 25 23 22 21 21 19 18 20 20 20 21 20 19 20 22 22 22 21 21 22 23 23 19 20 20 20 21 20 20 21 21 21 21
37 36 36 35 32 32 32 30 28 26 24 23 22 22 20 19 19 20 20 20 20 20 21 20 18 19 22 23 23 23 24 27 26 22 20 20 19 20 20 20 19 21 22
35 34 32 32 32 30 29 29 27 26 24 23 22 20 20 20 19 19 20 18 19 20 18 18 18 19 20 21 24 24 26 29 28 26 22 22 22 21 20 20 20 20 21
Wind_Direction
216 215 218 195 173 149 154 156 161 166 155 153 146 141 135 125 121 112 97 90 86 85 73 54 36 21 12 356 349 344 337 335 321 329 332 339 339 340 343 345 348 342 338
217 214 214 179 157 161 159 150 151 149 149 143 140 135 130 127 118 103 101 95 88 79 63 47 32 17 15 357 349 352 342 334 327 328 333 336 344 350 348 349 343 340 342
208 200 195 196 157 150 143 147 149 143 140 140 137 131 128 118 110 104 103 96 86 74 59 47 32 24 15 6 1 355 347 337 333 330 332 343 348 355 347 345 341 345 345
202 177 187 170 176 156 150 151 141 137 139 136 132 121 120 115 108 107 104 99 88 74 62 51 41 29 23 13 4 356 353 343 345 340 341 350 350 350 347 340 338 346 348
198 176 168 114 142 146 131 130 131 134 131 128 118 114 111 104 105 106 101 95 84 72 62 55 44 36 28 19 11 2 360 355 349 346 348 349 351 349 345 335 336 344 358
192 173 136 129 135 128 120 120 120 121 120 115 111 111 109 101 110 105 100 88 77 70 61 48 39 26 23 10 10 14 8 4 359 347 352 350 350 348 341 332 337 347 355
187 138 138 132 122 126 120 119 118 116 118 117 121 117 106 107 105 101 93 87 78 68 61 48 36 26 22 14 11 9 360 7 10 350 352 354 348 349 344 335 344 343 341
144 131 133 131 117 137 121 119 117 119 120 117 115 112 109 105 98 95 94 88 84 72 59 47 41 29 23 25 13 6 8 7 2 5 358 359 1 2 3 352 347 355 20
133 132 135 134 135 127 126 121 117 117 114 113 115 111 107 101 99 104 93 89 80 73 65 51 45 32 28 27 15 7 3 5 5 8 19 29 11 20 19 10 9 6 5
137 132 131 129 132 135 125 120 115 110 109 107 106 102 99 93 94 98 92 86 88 82 65 49 39 37 29 25 20 7 0 2 8 17 17 16 21 25 28 25 20 16 12
130 126 126 124 129 128 122 120 117 113 109 105 101 99 91 86 85 82 94 87 81 73 61 49 36 35 34 27 24 10 359 354 17 30 20 20 13 24 30 31 34 35 34
124 123 123 126 125 126 119 113 113 112 108 107 104 96 87 80 80 82 85 87 77 71 58 48 33 37 33 26 22 25 26 21 33 28 22 13 4 11 24 38 37 36 39
120 119 118 119 125 123 118 118 119 117 117 114 111 108 96 88 81 76 75 75 75 69 63 51 41 34 23 22 21 27 31 29 29 24 19 10 4 16 30 36 32 11 55
117 118 117 114 114 111 111 115 120 118 117 120 117 102 99 92 84 78 68 61 61 60 49 39 41 38 35 31 34 32 30 28 27 21 17 8 26 33 28 20 17 15 31
117 115 115 113 114 105 97 100 103 104 119 116 101 104 104 90 80 90 83 74 70 70 52 53 46 40 37 38 35 28 26 25 21 17 18 15 19 23 20 15 16 15 34
117 115 115 114 110 103 100 92 101 111 110 104 103 103 99 95 90 82 81 86 74 63 65 56 48 43 42 36 25 23 21 20 17 17 19 18 16 15 13 17 24 23 23
121 117 117 115 116 114 108 105 101 91 94 95 97 100 99 97 89 83 82 70 69 71 65 57 50 46 43 33 26 23 19 14 18 23 23 22 22 27 19 21 25 25 34
115 119 118 117 116 113 113 116 107 102 100 90 92 96 96 91 89 83 79 74 74 66 62 55 51 48 43 32 30 28 26 32 32 28 36 32 37 33 26 22 26 13 16
114 112 111 110 110 112 116 107 106 105 103 104 101 86 85 83 83 80 80 80 75 66 60 57 51 50 47 35 31 33 29 29 25 20 20 23 25 28 24 25 28 29 31
109 112 110 111 115 111 108 108 109 108 109 108 100 97 93 94 86 82 78 74 70 66 60 56 51 48 47 32 25 25 28 30 30 27 26 26 27 28 31 27 29 27 34
113 112 113 111 112 109 107 108 112 111 109 101 96 100 103 100 93 86 78 72 69 64 60 56 50 47 44 37 30 29 28 29 29 25 24 26 28 30 34 36 41 34 36
114 115 114 112 111 111 112 111 115 109 104 105 108 108 103 97 92 87 83 78 74 70 62 56 51 45 41 37 30 26 23 25 24 21 23 27 27 34 38 39 41 43 34
116 112 109 109 113 112 109 116 112 109 112 114 114 111 101 96 92 90 84 81 76 71 65 58 52 47 43 39 34 28 23 23 20 21 22 26 31 30 36 39 37 36 40
110 115 118 115 112 117 119 114 114 115 116 116 113 107 102 99 98 92 86 82 79 73 68 61 54 50 47 43 38 32 32 36 28 26 28 30 33 33 35 38 39 39 37
119 116 115 119 120 118 118 118 117 118 118 116 113 109 109 106 97 92 88 84 80 76 69 63 57 51 47 43 40 40 45 50 46 42 35 35 36 37 37 37 38 39 38
118 118 119 122 122 122 122 122 123 122 121 117 113 113 111 104 100 96 89 85 82 78 73 66 58 54 49 43 45 45 52 51 46 45 41 40 40 39 38 37 37 38 38